Location: Berlin
(35.4506°N, 99.6254°W)
Time: 19:14:30
(UTC+00:00)

Daily predictions for brighter satellites

Satellite Brightness Start Highest point End
(mag) Time Altitude Azimuth Time Altitude Azimuth Time Altitude Azimuth
Lacrosse 5 rocket 3.3 12:00:42 10° N 12:02:56 17° NE 12:05:09 10° E
Lacrosse 4 Rocket 4.0 12:01:26 10° NNE 12:03:45 15° NE 12:06:04 10° E
Okean 1 Rocket 3.8 12:00:15 10° N 12:04:27 54° E 12:08:39 10° SSE
Hubble Space Telescope 2.8 12:03:54 10° SSW 12:06:40 19° SSE 12:09:26 10° ESE
ATLAS 3B R/B 3.7 12:03:11 19° W 12:07:34 32° NW 12:14:24 10° NNE
Meteor 2-17 Rocket 4.4 12:01:33 10° S 12:07:37 81° W 12:13:44 10° N
Aureole 3 Rocket 4.4 12:01:58 10° NNW 12:08:04 57° W 12:16:18 10° S
Cosmos 968 Rocket 3.4 12:03:54 10° NNW 12:09:08 74° WSW 12:14:20 10° S
Sich 1 Rocket 4.1 12:04:44 10° N 12:09:12 64° E 12:13:35 10° SSE
Helios 1A Rocket 2.3 12:06:40 10° SSE 12:10:01 89° W 12:13:24 10° NNW
CENTAUR R/B 3.5 12:01:27 10° NNW 12:10:16 89° ENE 12:19:49 10° SSE
COSMO-SKYMED 1 2.5 12:09:04 10° SSE 12:13:10 84° ENE 12:17:18 10° N
Cosmos 1484 Rocket 2.8 12:11:41 10° NNE 12:15:11 71° ESE 12:18:39 10° S
IRS-1D 4.0 12:14:56 10° N 12:19:22 35° WNW 12:23:49 10° SW
SL-8 R/B 3.6 12:15:17 10° SW 12:20:03 86° NW 12:24:50 10° NE
CZ-3 R/B 2.6 12:07:28 11° W 12:21:35 53° S 12:26:46 10° ESE
Cosmos 1812 4.0 12:22:44 13° WSW 12:22:44 13° WSW 12:23:33 10° SW
SJ 16-02 3.0 12:22:31 14° W 12:22:31 14° W 12:24:27 10° SW
SL-16 R/B 3.7 12:24:24 14° WNW 12:25:17 14° NW 12:28:13 10° NNW
IGS 5A 3.8 12:23:10 10° NNE 12:27:07 67° E 12:31:03 10° S
Cosmos 1741 Rocket 4.0 12:23:44 10° NNW 12:29:00 67° WSW 12:34:13 10° S
Cosmos 1302 Rocket 4.0 12:25:10 10° SSW 12:30:13 56° WNW 12:35:19 10° N
Cosmos 1975 Rocket 4.3 12:26:55 10° SSE 12:31:00 45° E 12:35:06 10° NNE
USA 234 3.7 12:25:45 10° ESE 12:32:09 59° NE 12:38:35 10° NW
Cosmos 1992 Rocket 4.1 12:29:40 10° SSW 12:34:52 82° ESE 12:40:05 10° NNE
Cosmos 1441 Rocket 2.8 12:32:34 10° SSW 12:35:51 60° W 12:39:08 10° N
Tsikada Rocket 4.1 12:31:42 10° S 12:38:01 87° E 12:44:27 10° N
deb Kosmos-1261 4.5 12:35:58 10° SW 12:38:28 40° NW 12:40:59 10° NNE
Cosmos 1025 Rocket 3.8 12:36:50 10° SW 12:40:37 29° WNW 12:44:26 10° NNW
BREEZE-M DEB (TANK) 1.8 12:46:32 10° SW 12:48:48 80° NW 12:51:46 10° NE
COSMO-SKYMED 1 4.1 23:54:45 10° ENE 23:57:05 15° E 23:59:24 10° SE
